Location: Ferchesar
(52.6477°N, 12.4298°E)
Time: 23:01:54
(UTC+01:00)

Envisat - Visible Passes

Search period start: 12 November 2019 00:00
Search period end: 22 November 2019 00:00
Orbit: 764 x 766 km, 98.1° (Epoch: 12 November)

Date Brightness Start Highest point End Pass type
(mag) Time Alt. Az. Time Alt. Az. Time Alt. Az.
12 Nov 5.2 06:19:24 10° NNE 06:23:51 29° E 06:28:15 10° SSE visible
12 Nov 2.9 17:39:34 10° SSE 17:44:36 68° ENE 17:49:40 10° N visible
12 Nov 5.4 19:20:16 10° SW 19:24:08 21° W 19:28:00 10° NW visible
13 Nov 6.1 05:43:38 10° NE 05:46:38 15° E 05:49:36 10° ESE visible
13 Nov 3.5 17:03:23 10° SE 17:08:01 36° ENE 17:12:39 10° N visible
13 Nov 4.3 18:42:14 10° SSW 18:47:00 40° W 18:51:49 10° NNW visible
14 Nov 4.3 06:44:37 10° NNE 06:49:32 46° E 06:54:25 10° S visible
14 Nov 3.1 18:05:01 10° S 18:10:05 78° WSW 18:15:13 10° NNW visible
14 Nov 6.0 19:47:31 10° WSW 19:50:00 13° W 19:52:28 10° NW visible
15 Nov 5.6 06:08:19 10° NE 06:12:28 24° E 06:16:35 10° SE visible
15 Nov 3.1 17:28:24 10° SE 17:33:21 56° ENE 17:38:21 10° N visible
15 Nov 5.1 19:08:31 10° SSW 19:12:44 26° W 19:16:58 10° NW visible
16 Nov 6.2 05:33:01 10° ENE 05:35:11 13° E 05:37:20 10° ESE visible
16 Nov 3.7 16:52:24 10° ESE 16:56:49 31° ENE 17:01:15 10° N visible
16 Nov 3.9 18:30:45 10° S 18:35:41 49° W 18:40:38 10° NNW visible
17 Nov 4.7 06:33:26 10° NNE 06:38:12 38° E 06:42:55 10° SSE visible
17 Nov 2.9 17:53:43 10° SSE 17:58:49 87° ENE 18:03:56 10° NNW visible
17 Nov 5.8 19:35:22 10° SW 19:38:33 16° W 19:41:44 10° NW visible
18 Nov 5.8 05:57:19 10° NE 06:01:04 20° E 06:04:47 10° SE visible
18 Nov 3.2 17:17:18 10° SE 17:22:08 47° ENE 17:27:00 10° N visible
18 Nov 4.8 18:56:51 10° SSW 19:01:21 31° W 19:05:53 10° NNW visible
19 Nov 3.7 06:58:46 10° NNE 07:03:49 61° E 07:08:51 10° S visible
19 Nov 3.5 18:19:21 10° S 18:24:22 60° W 18:29:25 10° NNW visible
20 Nov 5.1 06:22:18 10° NNE 06:26:50 31° E 06:31:20 10° SSE visible
20 Nov 2.9 17:42:29 10° SSE 17:47:33 73° ENE 17:52:38 10° NNW visible
20 Nov 5.5 19:23:26 10° SW 19:27:07 20° W 19:30:51 10° NW visible
21 Nov 6.0 05:46:24 10° NE 05:49:39 17° E 05:52:51 10° SE visible
21 Nov 3.4 17:06:15 10° SE 17:10:56 39° ENE 17:15:38 10° N visible
21 Nov 4.5 18:45:17 10° SSW 18:49:59 38° W 18:54:44 10° NNW visible
